Location: Ermatingen
(47.6706°N, 9.0857°E)
Time: 22:11:41
(UTC+00:00)

BlueWalker 3 - Visible Passes

Search period start: 02 February 2023 00:00
Search period end: 12 February 2023 00:00
Orbit: 499 x 517 km, 53.2° (Epoch: 01 February)

Date Brightness Start Highest point End Pass type
(mag) Time Alt. Az. Time Alt. Az. Time Alt. Az.
02 Feb 2.7 17:09:04 10° W 17:12:48 44° NNW 17:16:24 11° ENE visible
02 Feb 3.3 18:48:22 10° WNW 18:51:11 33° NNW 18:51:11 33° NNW visible
03 Feb 2.8 18:29:26 10° WNW 18:33:03 37° N 18:33:03 37° N visible
04 Feb 2.8 18:10:28 10° WNW 18:14:07 37° N 18:14:55 33° NE visible
04 Feb 5.0 19:49:11 10° WNW 19:49:43 14° WNW 19:49:43 14° WNW visible
05 Feb 2.8 17:51:30 10° WNW 17:55:10 37° N 17:56:49 25° ENE visible
05 Feb 4.4 19:30:13 10° WNW 19:31:37 21° WNW 19:31:37 21° WNW visible
06 Feb 2.7 17:32:33 10° WNW 17:36:12 38° N 17:38:44 17° ENE visible
06 Feb 3.5 19:11:14 10° WNW 19:13:32 34° WNW 19:13:32 34° WNW visible
07 Feb 2.7 17:13:34 10° WNW 17:17:14 38° N 17:20:43 11° ENE visible
07 Feb 2.4 18:52:15 10° WNW 18:55:31 61° WNW 18:55:31 61° WNW visible
08 Feb 1.8 18:33:15 10° WNW 18:37:09 83° SSW 18:37:34 69° SE visible
09 Feb 1.9 18:14:15 10° WNW 18:18:09 80° SSW 18:19:41 35° SE visible
09 Feb 5.0 19:53:48 10° W 19:54:31 13° WSW 19:54:31 13° WSW visible
10 Feb 2.0 17:55:14 10° WNW 17:59:07 77° SSW 18:01:57 18° SE visible
10 Feb 4.7 19:34:53 10° W 19:36:47 15° WSW 19:36:47 15° WSW visible
11 Feb 2.1 17:36:13 10° WNW 17:40:06 74° SSW 17:43:59 10° SE visible
11 Feb 4.6 19:15:58 10° W 19:18:10 15° SW 19:19:12 13° SSW visible
